ENMS Weather Reports


time (UTC)temp
C
wind
direction
speed
KPH
gust
KPH
rain 1hr
cm
rain 24hr
cm
rain mn
cm
humidity
%
barometer
mb
20260506193307 2 160 8.0 0.0 0.00 0.00 0.00 86 1011.0
20260506190306 3 170 9.7 0.0 0.00 0.00 0.00 80 1011.0
20260506183307 3 170 11.3 0.0 0.00 0.00 0.00 75 1011.0
20260506180307 5 0 3.2 0.0 0.00 0.00 0.00 70 1011.0
20260506173308 5 220 11.3 0.0 0.00 0.00 0.00 70 1011.0
20260506170307 5 190 16.1 0.0 0.00 0.00 0.00 75 1010.0
20260506163307 5 180 4.8 0.0 0.00 0.00 0.00 80 1010.0
20260506160307 5 160 9.7 0.0 0.00 0.00 0.00 75 1010.0
20260506153307 3 170 14.5 0.0 0.00 0.00 0.00 80 1010.0
20260506150307 2 170 12.9 0.0 0.00 0.00 0.00 86 1010.0
20260506143307 5 190 11.3 0.0 0.00 0.00 0.00 70 1010.0
20260506140307 5 180 16.1 0.0 0.00 0.00 0.00 70 1010.0
20260506133307 5 170 14.5 0.0 0.00 0.00 0.00 70 1009.0
20260506130308 5 210 4.8 0.0 0.00 0.00 0.00 70 1009.0
20260506123307 5 0 4.8 0.0 0.00 0.00 0.00 70 1009.0
20260506120308 5 360 12.9 0.0 0.00 0.00 0.00 70 1009.0
20260506113308 5 360 11.3 0.0 0.00 0.00 0.00 80 1009.0
20260506110307 6 0 4.8 0.0 0.00 0.00 0.00 65 1009.0
20260506103306 6 0 3.2 0.0 0.00 0.00 0.00 60 1008.0
20260506100308 5 0 9.7 27.4 0.00 0.00 0.00 65 1008.0
20260506093307 5 160 8.0 0.0 0.00 0.00 0.00 75 1008.0
20260506090307 5 180 16.1 0.0 0.00 0.00 0.00 80 1008.0
20260506083307 2 0 3.2 0.0 0.00 0.00 0.00 93 1008.0
20260506073307 0 0 0.0 0.0 0.00 0.00 0.00 93 1007.0
20260506070306 0 0 3.2 0.0 0.00 0.00 0.00 10 1007.0
20260506060306 0 170 9.7 0.0 0.00 0.00 0.00 93 1007.0
20260506050306 1 0 3.2 0.0 0.00 0.00 0.00 93 1006.0
20260506043307 1 0 0.0 0.0 0.00 0.00 0.00 86 1006.0
20260506040307 1 0 1.6 0.0 0.00 0.00 0.00 86 1006.0
20260506033307 0 0 3.2 0.0 0.00 0.00 0.00 93 1005.0
20260506030307 0 0 1.6 0.0 0.00 0.00 0.00 93 1005.0
20260506023306 1 210 9.7 0.0 0.00 0.00 0.00 86 1005.0
20260506020306 0 130 4.8 0.0 0.00 0.00 0.00 93 1005.0
20260506013307 1 200 12.9 0.0 0.00 0.00 0.00 86 1004.0
20260506010307 0 190 9.7 0.0 0.00 0.00 0.00 93 1004.0
20260506003306 0 190 4.8 0.0 0.00 0.00 0.00 93 1004.0
20260506000307 0 160 4.8 0.0 0.00 0.00 0.00 93 1004.0
20260505233307 0 200 9.7 0.0 0.00 0.00 0.00 93 1004.0
20260505230306 0 190 8.0 0.0 0.00 0.00 0.00 93 1004.0
20260505223306 0 180 9.7 0.0 0.00 0.00 0.00 93 1003.0
20260505220306 0 170 9.7 0.0 0.00 0.00 0.00 93 1003.0
20260505213306 0 180 14.5 0.0 0.00 0.00 0.00 93 1003.0
20260505210306 0 180 16.1 0.0 0.00 0.00 0.00 93 1003.0
20260505203306 1 200 14.5 0.0 0.00 0.00 0.00 86 1003.0
20260505200306 1 160 11.3 29.0 0.00 0.00 0.00 86 1003.0